This is the latest recevied weather packets stored in our database for station/object AB4KY. If no packets are shown the sender has not sent any weather packets the latest 10 day(s).
| Time | Temp. | Humidity | Pressure | Rain* | Wind** | Luminosity | Snow |
|---|---|---|---|---|---|---|---|
| 1777341333 | 16.11° C | 99% | 1008.1 hPa | 0 mm | - | 0 W/m² | - |
| 1777341031 | 16.11° C | 99% | 1008.1 hPa | 0 mm | - | 0 W/m² | - |
| 1777340728 | 16.11° C | 99% | 1008 hPa | 0 mm | - | 0 W/m² | - |
| 1777340426 | 16.11° C | 99% | 1008.3 hPa | 0 mm | - | 0 W/m² | - |
| 1777340123 | 16.11° C | 99% | 1008.4 hPa | 0.51 mm | - | 0 W/m² | - |
| 1777339820 | 16.11° C | 99% | 1008 hPa | 2.29 mm | - | 0 W/m² | - |
| 1777339518 | 16.11° C | 99% | 1008.8 hPa | 6.1 mm | - | 0 W/m² | - |
| 1777339215 | 16.67° C | 99% | 1007.9 hPa | 8.89 mm | - | 0 W/m² | - |
| 1777338913 | 16.67° C | 99% | 1009.1 hPa | 9.65 mm | - | 0 W/m² | - |
| 1777338603 | 16.67° C | 99% | 1010 hPa | 19.3 mm | - | 0 W/m² | - |
| 1777338301 | 16.67° C | 99% | 1009.9 hPa | 31.24 mm | - | 0 W/m² | - |
| 1777337996 | 16.67° C | 99% | 1010.5 hPa | 26.42 mm | - | 0 W/m² | - |
| 1777337693 | 16.67° C | 99% | 1011 hPa | 8.38 mm | - | 0 W/m² | - |
| 1777337386 | 16.67° C | 99% | 1009.5 hPa | 3.05 mm | - | 0 W/m² | - |
| 1777337083 | 16.67° C | 99% | 1008.2 hPa | 4.32 mm | - | 0 W/m² | - |
| 1777336781 | 16.67° C | 99% | 1007.5 hPa | 3.05 mm | - | 0 W/m² | - |
| 1777336479 | 16.67° C | 99% | 1007.6 hPa | 0.51 mm | - | 0 W/m² | - |
| 1777336176 | 16.67° C | 99% | 1008.4 hPa | 2.29 mm | - | 0 W/m² | - |
| 1777335873 | 16.67° C | 99% | 1008 hPa | 6.1 mm | - | 0 W/m² | - |
| 1777335570 | 16.67° C | 99% | 1008.3 hPa | 2.29 mm | - | 0 W/m² | - |
| 1777335268 | 16.67° C | 99% | 1008.6 hPa | 1.27 mm | - | 0 W/m² | - |
| 1777334965 | 16.67° C | 99% | 1008.6 hPa | 6.1 mm | - | 0 W/m² | - |
| 1777334662 | 16.67° C | 99% | 1008.9 hPa | 15.49 mm | - | 0 W/m² | - |
| 1777334360 | 16.67° C | 99% | 1009.6 hPa | 25.91 mm | - | 0 W/m² | - |
| 1777334056 | 16.67° C | 99% | 1010.1 hPa | 38.35 mm | - | 0 W/m² | - |
* Rain latest hour (hover to see other rain measurements)
** Current wind speed in m/s (hover to see current wind gust speed)